Stations météo

réclame
Mon MeteoGroup
Aubenas, France (7570): Température de l'air & dewpoint: 12.06.2018 15:00:00 - 18.06.2018 15:00:00 (CEST)Aubenas, France (7570): Température de l'air 5cm: 12.06.2018 15:00:00 - 18.06.2018 15:00:00 (CEST)Aubenas, France (7570): Température de l'air -20cm & Température de l'air -100cm: 12.06.2018 15:00:00 - 18.06.2018 15:00:00 (CEST)Aubenas, France (7570): Vitesse du vent & gusts: 12.06.2018 15:00:00 - 18.06.2018 15:00:00 (CEST)Aubenas, France (7570): Direction du vent: 12.06.2018 15:00:00 - 18.06.2018 15:00:00 (CEST)Aubenas, France (7570): reduced air pressure: 12.06.2018 15:00:00 - 18.06.2018 15:00:00 (CEST)Aubenas, France (7570): visibility: 12.06.2018 15:00:00 - 18.06.2018 15:00:00 (CEST)Aubenas, France (7570): Quantités de précipitations: 12.06.2018 15:00:00 - 18.06.2018 15:00:00 (CEST)
Date & Time tt [°C] td [°C] tt 5cm [°C] tt -20cm [°C] tt -100cm [°C] ff [km/h] ff [knt] fx [km/h] fx [knt] dd ppp [hPa] vv [km] rr [mm]
18.06.2018 15:00:00 25,2 11,0 29,9 19,7 17,5 26 14 49 26 N 1020,7 20 0,0
18.06.2018 14:00:00 25,2 11,0 31,7 19,7 17,5 23 12 42 23 N 1021,0 20 0,0
18.06.2018 13:00:00 25,0 10,1 28,1 19,8 17,5 21 11 41 22 N 1021,2 20 0,0
18.06.2018 12:00:00 24,0 8,8 26,0 19,8 17,5 19 10 44 24 NNE 1021,3 20 0,0
18.06.2018 11:00:00 23,2 9,2 23,2 19,8 17,5 20 11 40 21 N 1021,5 20 0,0
18.06.2018 10:00:00 21,7 8,2 19,9 19,9 17,5 24 13 43 23 NNE 1021,5 20 0,0
18.06.2018 09:00:00 20,1 8,4 17,2 19,9 17,6 21 11 34 18 N 1021,7 20 0,0
18.06.2018 08:00:00 18,9 8,5 13,5 20,0 17,5 15 8 30 16 N 1021,7 20 0,0
18.06.2018 07:00:00 16,7 8,4 13,0 20,0 17,5 6 3 20 11 N 1022,0 20 0,0
18.06.2018 06:00:00 16,5 7,9 14,0 20,0 17,5 10 5 29 16 NNW 1021,9 20 0,0
18.06.2018 05:00:00 16,9 8,1 14,5 20,0 17,5 12 6 28 15 NNW 1021,7 20 0,0
18.06.2018 04:00:00 17,3 9,0 14,7 20,0 17,5 14 7 39 21 N 1021,6 20 0,0
18.06.2018 03:00:00 18,1 9,4 16,0 20,0 17,5 23 13 43 23 N 1021,4 20 0,0
18.06.2018 02:00:00 18,5 9,3 15,3 20,0 17,5 20 11 36 19 N 1021,5 20 0,0
18.06.2018 01:00:00 18,4 9,2 15,3 20,0 17,5 18 10 34 19 N 1021,7 20 0,0
18.06.2018 00:00:00 18,4 8,9 14,9 19,9 17,5 13 7 27 15 NNE 1021,8 20 0,0
17.06.2018 23:00:00 19,0 9,7 16,2 19,9 17,5 11 6 45 24 N 1021,6 20 0,0
17.06.2018 22:00:00 20,6 10,4 17,9 19,8 17,5 19 10 44 24 N 1020,6 20 0,0
17.06.2018 21:00:00 21,7 11,1 19,3 19,8 17,5 21 11 41 22 N 1019,5 20 0,0
17.06.2018 20:00:00 23,5 11,9 20,6 19,8 17,5 14 8 35 19 NNE 1018,6 20 0,0
17.06.2018 19:00:00 23,6 11,3 21,0 19,8 17,5 14 8 29 16 NNE 1018,2 20 0,0
17.06.2018 18:00:00 24,8 12,1 23,5 19,7 17,5 12 6 27 15 N 1018,0 20 0,0
17.06.2018 17:00:00 24,2 12,2 23,4 19,7 17,5 14 8 31 17 N 1018,3 20 0,0
17.06.2018 16:00:00 25,2 12,4 24,9 19,7 17,5 16 9 30 16 NNW 1018,2 20 0,0
17.06.2018 15:00:00 24,8 11,7 25,3 19,8 17,5 19 10 41 22 N 1018,0 20 0,0
17.06.2018 14:00:00 24,8 12,1 28,9 19,8 17,5 19 10 41 22 N 1018,4 20 0,0
17.06.2018 13:00:00 24,1 12,4 27,7 19,8 17,5 22 12 39 21 N 1018,6 20 0,0
17.06.2018 12:00:00 23,8 12,4 25,6 19,8 17,5 21 11 41 22 N 1018,7 20 0,0
17.06.2018 11:00:00 23,5 11,9 24,7 19,9 17,5 22 12 38 21 NNE 1018,7 20 0,0
17.06.2018 10:00:00 22,7 12,6 21,3 19,9 17,5 17 9 32 18 N 1018,9 20 0,0
17.06.2018 09:00:00 21,4 12,0 18,7 19,9 17,5 15 8 29 16 N 1019,0 20 0,0
17.06.2018 08:00:00 20,3 11,8 16,7 19,9 17,5 16 9 35 19 N 1018,8 20 0,0
17.06.2018 07:00:00 19,1 11,4 14,9 19,9 17,5 15 8 30 16 N 1018,3 20 0,0
17.06.2018 06:00:00 18,4 11,5 14,9 19,9 17,4 7 4 20 11 N 1017,8 20 0,0
17.06.2018 05:00:00 19,2 11,7 16,4 19,9 17,5 14 8 34 19 N 1017,5 20 0,0
17.06.2018 04:00:00 19,6 12,4 15,0 19,8 17,4 15 8 28 15 N 1017,4 20 0,0
17.06.2018 03:00:00 18,5 13,1 14,9 19,8 17,5 7 4 14 8 N 1017,5 20 0,0
17.06.2018 02:00:00 19,2 12,7 15,2 19,8 17,4 7 4 13 7 N 1017,1 20 0,0
17.06.2018 01:00:00 19,5 12,3 15,6 19,8 17,5 4 2 21 11 N 1017,1 20 0,0
17.06.2018 00:00:00 21,1 12,2 16,5 19,7 17,5 9 5 16 9 NNW 1016,9 20 0,0
16.06.2018 23:00:00 20,0 13,7 17,0 19,7 17,4 6 3 11 6 N 1016,7 20 0,0
16.06.2018 22:00:00 21,5 13,7 18,0 19,6 17,5 6 3 19 10 N 1016,1 20 0,0
16.06.2018 21:00:00 23,6 13,7 19,9 19,5 17,4 11 6 22 12 NNE 1015,1 20 0,0
16.06.2018 20:00:00 25,1 13,6 21,8 19,5 17,5 13 7 24 13 NNE 1014,4 20 0,0
16.06.2018 19:00:00 25,8 13,6 23,2 19,4 17,5 13 7 28 15 NE 1013,8 20 0,0
16.06.2018 18:00:00 26,8 14,5 26,1 19,4 17,4 11 6 29 16 NE 1013,7 20 0,0
16.06.2018 17:00:00 27,1 13,4 26,4 19,4 17,5 10 6 22 12 NNE 1014,0 20 0,0
16.06.2018 16:00:00 27,1 14,1 28,7 19,4 17,4 14 8 30 16 NE 1014,2 20 0,0
16.06.2018 15:00:00 26,9 12,9 30,7 19,4 17,4 16 9 31 17 N 1014,6 20 0,0
16.06.2018 14:00:00 26,5 13,9 32,4 19,4 17,5 13 7 32 18 NE 1014,8 20 0,0
16.06.2018 13:00:00 25,4 12,9 28,2 19,4 17,5 14 8 33 18 N 1015,1 20 0,0
16.06.2018 12:00:00 25,4 14,2 26,8 19,5 17,5 16 8 39 21 NNE 1015,1 20 0,0
16.06.2018 11:00:00 24,2 13,1 24,6 19,5 17,4 20 11 40 22 NNE 1015,2 20 0,0
16.06.2018 10:00:00 23,5 13,1 21,7 19,5 17,4 20 11 37 20 NNE 1015,3 20 0,0
16.06.2018 09:00:00 22,2 11,9 18,4 19,5 17,5 21 12 36 19 N 1015,1 20 0,0
16.06.2018 08:00:00 20,9 11,8 15,4 19,5 17,5 14 8 32 17 N 1015,3 20 0,0
16.06.2018 07:00:00 18,7 11,7 14,2 19,6 17,5 10 6 20 11 N 1015,1 20 0,0
16.06.2018 06:00:00 17,5 11,3 13,8 19,6 17,5 9 5 24 13 N 1015,1 20 0,0
16.06.2018 05:00:00 17,0 11,5 13,7 19,5 17,4 10 6 17 9 N 1015,0 20 0,0
16.06.2018 04:00:00 17,8 11,4 14,4 19,5 17,5 8 4 18 10 NNE 1015,1 20 0,0
16.06.2018 03:00:00 18,0 11,3 14,4 19,5 17,5 9 5 16 9 N 1015,0 20 0,0
16.06.2018 02:00:00 19,0 11,3 15,0 19,5 17,5 10 5 24 13 N 1014,9 20 0,0
16.06.2018 01:00:00 18,2 11,5 15,1 19,4 17,5 7 4 22 12 N 1015,2 20 0,0
16.06.2018 00:00:00 19,3 11,6 15,5 19,4 17,5 13 7 23 13 N 1015,2 20 0,0
15.06.2018 23:00:00 19,8 11,3 16,8 19,3 17,5 13 7 23 13 N 1015,2 20 0,0
15.06.2018 22:00:00 20,7 11,3 17,4 19,3 17,5 14 8 35 19 N 1014,8 20 0,0
15.06.2018 21:00:00 21,9 11,0 18,9 19,2 17,5 18 10 36 19 N 1014,4 20 0,0
15.06.2018 20:00:00 22,7 11,7 20,1 19,1 17,5 11 6 37 20 N 1013,9 20 0,0
15.06.2018 19:00:00 24,0 12,3 22,5 19,1 17,5 18 10 36 19 N 1013,5 20 0,0
15.06.2018 18:00:00 25,0 12,2 23,5 19,1 17,5 18 10 32 17 NNE 1013,2 20 0,0
15.06.2018 17:00:00 24,7 12,3 23,9 19,0 17,5 15 8 36 19 NNE 1013,4 20 0,0
15.06.2018 16:00:00 26,6 12,6 29,7 19,0 17,5 18 10 33 18 NE 1013,1 20 0,0
15.06.2018 15:00:00 25,6 11,7 32,3 19,1 17,5 16 9 33 18 NNE 1013,5 20 0,0
15.06.2018 14:00:00 24,9 12,1 33,4 19,1 17,5 17 9 37 20 NNE 1013,9 20 0,0
15.06.2018 13:00:00 24,1 11,1 29,5 19,1 17,5 19 11 36 19 NE 1014,2 20 0,0
15.06.2018 12:00:00 22,5 11,6 22,1 19,1 17,5 21 12 39 21 NNE 1014,9 20 0,0
15.06.2018 11:00:00 21,3 10,1 20,1 19,2 17,5 20 11 35 19 N 1015,1 20 0,0
15.06.2018 10:00:00 20,6 8,9 19,7 19,2 17,5 16 9 46 25 N 1014,9 20 0,0
15.06.2018 09:00:00 20,2 9,1 16,6 19,2 17,5 17 9 35 19 N 1014,5 20 0,0
15.06.2018 08:00:00 18,3 9,1 15,0 19,2 17,5 16 9 28 15 N 1014,9 20 0,0
15.06.2018 07:00:00 17,3 9,0 14,6 19,2 17,5 14 7 35 19 N 1014,7 20 0,0
15.06.2018 06:00:00 17,2 8,9 14,6 19,2 17,5 14 8 37 20 N 1014,8 20 0,0
15.06.2018 05:00:00 17,5 8,6 13,7 19,2 17,5 22 12 42 23 N 1014,6 20 0,0
15.06.2018 04:00:00 17,1 9,3 14,2 19,2 17,5 14 8 46 25 N 1014,7 20 0,0
15.06.2018 03:00:00 17,8 9,2 15,0 19,2 17,5 19 10 38 21 N 1015,0 20 0,0
15.06.2018 02:00:00 17,9 9,5 15,1 19,2 17,5 14 8 34 18 N 1015,4 20 0,0
15.06.2018 01:00:00 18,3 8,5 16,0 19,2 17,5 17 9 39 21 N 1015,4 20 0,0
15.06.2018 00:00:00 18,4 8,4 15,4 19,1 17,5 18 10 39 21 N 1015,7 20 0,0
14.06.2018 23:00:00 18,6 8,5 15,4 19,1 17,5 14 8 31 17 N 1015,8 20 0,0
14.06.2018 22:00:00 19,3 8,6 16,2 19,0 17,5 16 9 41 22 N 1015,2 20 0,0
14.06.2018 21:00:00 20,0 9,3 17,7 19,0 17,5 19 10 42 23 N 1014,7 20 0,0
14.06.2018 20:00:00 21,8 8,3 19,7 19,0 17,5 26 14 46 25 N 1014,0 20 0,0
14.06.2018 19:00:00 23,5 7,6 22,4 18,9 17,5 22 12 47 26 N 1013,3 20 0,0
14.06.2018 18:00:00 24,1 6,4 24,8 18,9 17,6 26 14 48 26 N 1012,9 20 0,0
14.06.2018 17:00:00 24,4 7,9 26,4 18,9 17,6 24 13 46 25 N 1012,9 20 0,0
14.06.2018 16:00:00 24,0 8,4 28,2 18,9 17,6 24 13 48 26 NNE 1013,2 20 0,0
14.06.2018 15:00:00 23,5 8,0 29,1 18,9 17,6 25 13 48 26 N 1013,4 20 0,0
14.06.2018 14:00:00 22,7 8,4 31,0 19,0 17,6 23 12 45 24 NNE 1013,8 20 0,0
14.06.2018 13:00:00 22,0 8,8 27,0 19,0 17,6 23 13 51 28 N 1014,2 20 0,0
14.06.2018 12:00:00 20,9 8,2 23,3 19,0 17,6 27 15 51 28 N 1014,3 20 0,0
14.06.2018 11:00:00 19,9 8,2 20,9 19,1 17,6 27 14 51 27 N 1014,4 20 0,0
14.06.2018 10:00:00 18,5 7,9 18,8 19,1 17,6 25 13 47 26 N 1014,7 20 0,0
14.06.2018 09:00:00 18,1 7,8 15,7 19,2 17,7 24 13 51 28 N 1014,4 20 0,0
14.06.2018 08:00:00 17,1 7,2 14,1 19,2 17,7 29 16 49 27 N 1014,2 20 0,0
14.06.2018 07:00:00 16,2 6,9 13,2 19,2 17,6 27 14 51 27 N 1014,0 20 0,0
14.06.2018 06:00:00 15,4 6,9 13,0 19,3 17,7 19 10 43 23 N 1014,0 20 0,0
14.06.2018 05:00:00 15,8 7,3 12,9 19,3 17,7 24 13 42 23 N 1013,6 20 0,0
14.06.2018 04:00:00 15,5 8,0 13,0 19,3 17,7 16 9 43 23 N 1013,7 20 0,0
14.06.2018 03:00:00 15,9 8,4 13,3 19,3 17,7 16 8 33 18 N 1013,9 20 0,0
14.06.2018 02:00:00 16,4 8,6 13,5 19,3 17,7 21 11 45 24 N 1014,1 20 0,0
14.06.2018 01:00:00 16,6 8,5 13,9 19,3 17,7 16 9 40 21 N 1014,2 20 0,0
14.06.2018 00:00:00 17,4 8,3 14,1 19,3 17,7 24 13 57 31 N 1014,3 20 0,0
13.06.2018 23:00:00 16,7 8,6 14,0 19,2 17,7 16 9 37 20 N 1014,6 20 0,0
13.06.2018 22:00:00 17,6 7,6 14,9 19,2 17,7 22 12 41 22 N 1014,2 20 0,0
13.06.2018 21:00:00 18,7 7,8 16,6 19,2 17,7 22 12 47 25 N 1013,5 20 0,0
13.06.2018 20:00:00 20,0 8,3 19,2 19,2 17,8 25 14 60 32 N 1013,2 20 0,0
13.06.2018 19:00:00 20,6 8,9 20,6 19,1 17,8 29 16 56 30 N 1012,5 20 0,0
13.06.2018 18:00:00 21,6 8,8 20,0 19,1 17,7 34 18 54 29 N 1012,3 20 0,0
13.06.2018 17:00:00 21,6 8,8 22,7 19,1 17,8 27 15 61 33 N 1012,2 20 0,0
13.06.2018 16:00:00 22,4 9,5 24,6 19,1 17,8 31 17 55 30 N 1011,9 20 0,0
13.06.2018 15:00:00 21,5 9,7 26,8 19,1 17,8 35 19 67 36 N 1011,9 20 0,0
13.06.2018 14:00:00 20,9 9,2 27,3 19,2 17,8 31 17 58 32 N 1012,0 20 0,0
13.06.2018 13:00:00 21,0 10,8 19,6 19,2 17,8 23 12 61 33 N 1011,6 20 0,0
13.06.2018 12:00:00 19,3 10,8 19,5 19,2 17,8 26 14 58 31 NNE 1011,8 20 0,0
13.06.2018 11:00:00 19,4 11,7 19,6 19,2 17,8 20 11 47 26 N 1011,2 20 0,0
13.06.2018 10:00:00 19,8 12,3 16,9 19,3 17,8 18 10 38 20 NNE 1010,8 20 0,0
13.06.2018 09:00:00 18,1 12,8 15,2 19,3 17,9 7 4 31 17 N 1010,8 20 0,0
13.06.2018 08:00:00 17,4 12,1 14,2 19,3 17,9 16 9 35 19 NNW 1010,5 20 0,0
13.06.2018 07:00:00 16,5 12,5 14,4 19,4 17,9 12 7 28 15 N 1010,5 20 0,0
13.06.2018 06:00:00 15,4 13,1 14,8 19,4 17,9 7 4 13 7 N 1010,4 20 0,4
13.06.2018 05:00:00 15,2 14,6 15,1 19,5 17,9 2 1 6 3 NE 1010,6 20 0,4
13.06.2018 04:00:00 15,1 14,5 15,0 19,5 17,9 5 3 6 3 WSW 1010,7 13 0,8
13.06.2018 03:00:00 15,1 14,5 15,1 19,5 17,9 0 0 4 2 N 1010,8 20 0,0
13.06.2018 02:00:00 15,1 14,3 15,1 19,5 18,0 0 0 4 2 N 1011,0 20 0,2
13.06.2018 01:00:00 15,3 14,5 15,0 19,5 18,0 2 1 6 3 NNW 1010,8 20 0,0
13.06.2018 00:00:00 15,4 14,1 14,7 19,6 18,0 4 2 11 6 NW 1011,1 20 0,0
12.06.2018 23:00:00 15,3 14,5 14,6 19,5 18,1 4 2 11 6 NE 1011,5 20 0,0
12.06.2018 22:00:00 15,8 14,2 15,4 19,5 18,1 7 4 15 8 NNE 1010,8 20 0,0
12.06.2018 21:00:00 15,7 14,9 15,9 19,5 18,2 7 4 10 5 NNE 1010,5 20 1,4
12.06.2018 20:00:00 15,7 14,9 15,3 19,5 18,2 4 2 14 8 NE 1010,1 11 2,8
12.06.2018 19:00:00 15,4 14,4 14,7 19,4 18,3 8 4 25 13 N 1010,3 20 3,9
12.06.2018 18:00:00 15,2 13,9 13,0 19,3 18,0 13 7 54 29 NNE 1010,0 3,8 29,4
12.06.2018 17:00:00 24,3 14,4 25,8 19,3 17,3 4 2 19 11 SE 1007,5 20 0,0
12.06.2018 16:00:00 24,0 15,5 31,1 19,3 17,3 6 4 20 11 E 1007,6 20 0,0
12.06.2018 15:00:00 21,6 15,0 23,1 19,3 17,3 15 8 25 14 E 1008,6 20 0,0

tt = Température de l'air
td = dewpoint
tt 5cm = Température de l'air 5cm
tt -20cm = Température de l'air -20cm
tt -100cm = Température de l'air -100cm
ff = Vitesse du vent
fx = gusts
dd = Direction du vent
ppp = reduced air pressure
vv = visibility
rr = Quantités de précipitations

stations d'obs. à proximité